Data No,UTC Date,UTC Time,Latitude,Longitude,Course(deg),Temp(degC),Sal(psu)
1078,2023/12/23,17:57,35-35.86N,139-47.25E,219,13.801,
1079,2023/12/23,17:58,35-35.68N,139-47.13E,199,13.765,
1080,2023/12/23,17:59,35-35.46N,139-47.10E,179,13.709,
1081,2023/12/23,18:00,35-35.25N,139-47.21E,146,13.686,
1082,2023/12/23,18:01,35-35.08N,139-47.45E,127,13.604,
1083,2023/12/23,18:02,35-34.91N,139-47.70E,130,13.475,
1084,2023/12/23,18:03,35-34.71N,139-47.99E,129,13.323,
1085,2023/12/23,18:04,35-34.52N,139-48.26E,130,13.31,
1086,2023/12/23,18:05,35-34.37N,139-48.48E,130,13.145,
1087,2023/12/23,18:06,35-34.18N,139-48.76E,130,13.059,
1088,2023/12/23,18:07,35-33.98N,139-49.04E,130,13.314,
1089,2023/12/23,18:08,35-33.76N,139-49.36E,129,13.248,
1090,2023/12/23,18:09,35-33.57N,139-49.65E,130,13.024,
1091,2023/12/23,18:10,35-33.39N,139-49.91E,130,12.82,
1092,2023/12/23,18:11,35-33.17N,139-50.23E,129,12.795,
1093,2023/12/23,18:12,35-32.96N,139-50.49E,137,12.61,
1094,2023/12/23,18:13,35-32.68N,139-50.70E,151,12.513,
1095,2023/12/23,18:14,35-32.38N,139-50.80E,167,12.831,
1096,2023/12/23,18:15,35-32.11N,139-50.82E,174,13.245,
1097,2023/12/23,18:16,35-31.80N,139-50.86E,174,13.347,
1098,2023/12/23,18:17,35-31.48N,139-50.90E,174,13.369,
1099,2023/12/23,18:18,35-31.15N,139-50.93E,175,13.426,
1100,2023/12/23,18:19,35-30.81N,139-50.97E,174,13.394,
1101,2023/12/23,18:20,35-30.49N,139-51.01E,175,13.381,
1102,2023/12/23,18:21,35-30.16N,139-50.97E,192,13.379,
1103,2023/12/23,18:22,35-29.83N,139-50.85E,196,13.443,
1104,2023/12/23,18:23,35-29.50N,139-50.73E,197,13.436,
1105,2023/12/23,18:24,35-29.22N,139-50.54E,217,13.405,
1106,2023/12/23,18:25,35-29.01N,139-50.21E,234,13.351,
1107,2023/12/23,18:26,35-28.80N,139-49.88E,232,13.408,
1108,2023/12/23,18:27,35-28.59N,139-49.55E,232,13.366,
1109,2023/12/23,18:28,35-28.37N,139-49.21E,232,13.262,
1110,2023/12/23,18:29,35-28.12N,139-48.82E,232,13.149,
1111,2023/12/23,18:30,35-27.92N,139-48.48E,232,13.141,
1112,2023/12/23,18:31,35-27.72N,139-48.17E,232,13.239,
1113,2023/12/23,18:32,35-27.51N,139-47.83E,232,13.331,
1114,2023/12/23,18:33,35-27.29N,139-47.47E,233,13.402,
1115,2023/12/23,18:34,35-27.08N,139-47.13E,232,13.369,
1116,2023/12/23,18:35,35-26.86N,139-46.77E,232,13.333,
1117,2023/12/23,18:36,35-26.64N,139-46.43E,230,13.549,
1118,2023/12/23,18:37,35-26.41N,139-46.09E,230,13.622,
1119,2023/12/23,18:38,35-26.17N,139-45.72E,231,13.71,
1120,2023/12/23,18:39,35-25.96N,139-45.40E,231,13.752,
1121,2023/12/23,18:40,35-25.74N,139-45.05E,231,13.757,
1122,2023/12/23,18:41,35-25.50N,139-44.69E,231,13.755,
1123,2023/12/23,18:42,35-25.28N,139-44.35E,231,13.752,
1124,2023/12/23,18:43,35-25.05N,139-43.99E,231,13.855,
1125,2023/12/23,18:44,35-24.81N,139-43.63E,231,14.009,
1126,2023/12/23,18:45,35-24.60N,139-43.30E,230,14.097,
1127,2023/12/23,18:46,35-24.31N,139-43.05E,204,14.212,
1128,2023/12/23,18:47,35-23.99N,139-42.87E,207,14.214,
1129,2023/12/23,18:48,35-23.66N,139-42.68E,205,14.258,
1130,2023/12/23,18:49,35-23.34N,139-42.49E,205,14.284,
1131,2023/12/23,18:50,35-23.00N,139-42.32E,196,14.306,
1132,2023/12/23,18:51,35-22.64N,139-42.31E,179,14.334,
1133,2023/12/23,18:52,35-22.28N,139-42.31E,179,14.361,
1134,2023/12/23,18:53,35-21.90N,139-42.31E,180,14.351,
1135,2023/12/23,18:54,35-21.53N,139-42.31E,180,14.277,
1136,2023/12/23,18:55,35-21.16N,139-42.30E,180,14.203,
1137,2023/12/23,18:56,35-20.81N,139-42.29E,181,14.196,
1138,2023/12/23,18:57,35-20.53N,139-42.29E,180,14.262,
1139,2023/12/23,18:58,35-20.28N,139-42.30E,173,14.341,
1140,2023/12/23,18:59,35-20.06N,139-42.35E,168,14.348,
1141,2023/12/23,19:00,35-19.86N,139-42.40E,167,14.366,
1142,2023/12/23,19:01,35-19.67N,139-42.49E,152,14.384,
1143,2023/12/23,19:02,35-19.51N,139-42.63E,146,14.386,
1144,2023/12/23,19:03,35-19.33N,139-42.77E,147,14.337,
1145,2023/12/23,19:04,35-19.16N,139-42.91E,144,14.321,
1146,2023/12/23,19:05,35-18.98N,139-43.07E,144,14.326,
1147,2023/12/23,19:06,35-18.80N,139-43.22E,144,14.372,
1148,2023/12/23,19:07,35-18.64N,139-43.37E,144,14.477,
1149,2023/12/23,19:08,35-18.46N,139-43.53E,145,14.531,
1150,2023/12/23,19:09,35-18.28N,139-43.68E,145,14.63,
1151,2023/12/23,19:10,35-18.11N,139-43.82E,145,14.616,
1152,2023/12/23,19:11,35-17.93N,139-43.98E,143,14.61,
1153,2023/12/23,19:12,35-17.76N,139-44.13E,143,14.667,
1154,2023/12/23,19:13,35-17.59N,139-44.29E,142,14.76,
1155,2023/12/23,19:14,35-17.42N,139-44.44E,142,14.83,
1156,2023/12/23,19:15,35-17.25N,139-44.60E,143,14.895,
1157,2023/12/23,19:16,35-17.08N,139-44.76E,142,14.941,
1158,2023/12/23,19:17,35-16.91N,139-44.91E,143,15.122,
1159,2023/12/23,19:18,35-16.73N,139-45.07E,143,15.296,
1160,2023/12/23,19:19,35-16.56N,139-45.22E,145,15.243,
1161,2023/12/23,19:20,35-16.38N,139-45.38E,143,15.117,
1162,2023/12/23,19:21,35-16.20N,139-45.53E,145,15.11,
1163,2023/12/23,19:22,35-16.03N,139-45.68E,143,15.111,
1164,2023/12/23,19:23,35-15.85N,139-45.84E,144,15.066,
1165,2023/12/23,19:24,35-15.68N,139-46.00E,142,15.086,
1166,2023/12/23,19:25,35-15.50N,139-46.14E,150,15.14,
1167,2023/12/23,19:26,35-15.28N,139-46.23E,167,15.184,
1168,2023/12/23,19:27,35-15.07N,139-46.24E,178,15.264,
1169,2023/12/23,19:28,35-14.85N,139-46.25E,178,15.303,
1170,2023/12/23,19:29,35-14.64N,139-46.26E,178,15.393,
1171,2023/12/23,19:30,35-14.42N,139-46.27E,177,15.322,
1172,2023/12/23,19:31,35-14.20N,139-46.27E,178,15.38,
1173,2023/12/23,19:32,35-13.99N,139-46.28E,179,15.453,
1174,2023/12/23,19:33,35-13.78N,139-46.28E,179,15.309,
1175,2023/12/23,19:34,35-13.57N,139-46.28E,179,15.156,
1176,2023/12/23,19:35,35-13.37N,139-46.29E,179,15.115,
1177,2023/12/23,19:36,35-13.16N,139-46.29E,179,15.068,
1178,2023/12/23,19:37,35-12.94N,139-46.28E,183,15.024,
1179,2023/12/23,19:38,35-12.72N,139-46.23E,194,14.979,
1180,2023/12/23,19:39,35-12.48N,139-46.14E,197,15.161,
1181,2023/12/23,19:40,35-12.22N,139-46.04E,196,15.565,
1182,2023/12/23,19:41,35-11.93N,139-45.93E,196,15.658,
1183,2023/12/23,19:42,35-11.66N,139-45.84E,196,15.622,
1184,2023/12/23,19:43,35-11.36N,139-45.74E,195,15.598,
1185,2023/12/23,19:44,35-11.07N,139-45.64E,194,15.693,
1186,2023/12/23,19:45,35-10.77N,139-45.55E,194,16.186,
1187,2023/12/23,19:46,35-10.46N,139-45.42E,198,16.345,
1188,2023/12/23,19:47,35-10.16N,139-45.27E,202,16.215,
1189,2023/12/23,19:48,35-09.88N,139-45.12E,204,16.065,
1190,2023/12/23,19:49,35-09.58N,139-44.96E,203,16.392,
1191,2023/12/23,19:50,35-09.30N,139-44.81E,203,16.478,
1192,2023/12/23,19:51,35-08.99N,139-44.65E,203,16.489,
1193,2023/12/23,19:52,35-08.70N,139-44.52E,200,16.481,
1194,2023/12/23,19:53,35-08.39N,139-44.38E,200,16.564,
1195,2023/12/23,19:54,35-08.08N,139-44.24E,200,16.523,
1196,2023/12/23,19:55,35-07.78N,139-44.12E,193,16.539,
1197,2023/12/23,19:56,35-07.45N,139-44.06E,186,16.664,
1198,2023/12/23,19:57,35-07.13N,139-44.01E,186,16.774,
1199,2023/12/23,19:58,35-06.80N,139-43.94E,192,16.826,
1200,2023/12/23,19:59,35-06.48N,139-43.84E,194,16.871,
1201,2023/12/23,20:00,35-06.16N,139-43.74E,194,16.907,
1202,2023/12/23,20:01,35-05.83N,139-43.64E,194,16.938,
1203,2023/12/23,20:02,35-05.49N,139-43.53E,194,16.952,
1204,2023/12/23,20:03,35-05.16N,139-43.43E,194,16.945,
1205,2023/12/23,20:04,35-04.84N,139-43.30E,204,16.919,
1206,2023/12/23,20:05,35-04.54N,139-43.09E,209,16.898,
1207,2023/12/23,20:06,35-04.22N,139-42.88E,207,17.082,
1208,2023/12/23,20:07,35-03.92N,139-42.71E,203,17.527,
1209,2023/12/23,20:08,35-03.58N,139-42.63E,185,17.678,
1210,2023/12/23,20:09,35-03.23N,139-42.61E,182,17.724,
1211,2023/12/23,20:10,35-02.87N,139-42.59E,184,17.789,
1212,2023/12/23,20:11,35-02.50N,139-42.56E,183,17.836,
1213,2023/12/23,20:12,35-02.12N,139-42.52E,184,17.88,
1214,2023/12/23,20:13,35-01.76N,139-42.49E,184,17.911,
1215,2023/12/23,20:14,35-01.39N,139-42.45E,185,17.967,
1216,2023/12/23,20:15,35-01.02N,139-42.40E,187,17.992,
1217,2023/12/23,20:16,35-00.65N,139-42.33E,188,18.009,
1218,2023/12/23,20:17,35-00.27N,139-42.26E,188,18.062,
1219,2023/12/23,20:18,34-59.90N,139-42.20E,186,18.149,
1220,2023/12/23,20:19,34-59.53N,139-42.20E,179,18.204,
1221,2023/12/23,20:20,34-59.15N,139-42.21E,178,18.242,
1222,2023/12/23,20:21,34-58.75N,139-42.23E,178,18.313,
1223,2023/12/23,20:22,34-58.37N,139-42.24E,178,18.378,
1224,2023/12/23,20:23,34-57.97N,139-42.26E,178,18.418,
1225,2023/12/23,20:24,34-57.59N,139-42.36E,158,18.463,
1226,2023/12/23,20:25,34-57.27N,139-42.57E,150,18.474,
1227,2023/12/23,20:26,34-56.93N,139-42.82E,148,18.477,
1228,2023/12/23,20:27,34-56.61N,139-43.07E,145,18.478,
1229,2023/12/23,20:28,34-56.28N,139-43.36E,144,18.465,
1230,2023/12/23,20:29,34-55.96N,139-43.63E,144,18.43,
1231,2023/12/23,20:30,34-55.63N,139-43.92E,145,18.396,
1232,2023/12/23,20:31,34-55.29N,139-44.20E,144,18.319,
1233,2023/12/23,20:32,34-55.00N,139-44.51E,134,17.97,
1234,2023/12/23,20:33,34-54.73N,139-44.87E,132,17.83,
1235,2023/12/23,20:34,34-54.46N,139-45.23E,131,17.805,
1236,2023/12/23,20:35,34-54.21N,139-45.58E,132,17.763,
1237,2023/12/23,20:36,34-53.94N,139-45.94E,132,17.735,
1238,2023/12/23,20:37,34-53.67N,139-46.29E,131,17.729,
1239,2023/12/23,20:38,34-53.41N,139-46.65E,131,17.172,
1240,2023/12/23,20:39,34-53.15N,139-46.99E,132,16.896,
1241,2023/12/23,20:40,34-52.88N,139-47.34E,132,16.861,
1242,2023/12/23,20:41,34-52.62N,139-47.69E,132,16.848,
1243,2023/12/23,20:42,34-52.37N,139-48.03E,131,16.819,
1244,2023/12/23,20:43,34-52.14N,139-48.40E,123,16.776,
1245,2023/12/23,20:44,34-51.99N,139-48.80E,111,16.671,
1246,2023/12/23,20:45,34-51.91N,139-49.23E,96,16.494,
1247,2023/12/23,20:46,34-51.90N,139-49.69E,90,16.374,
1248,2023/12/23,20:47,34-51.90N,139-50.12E,90,16.483,
1249,2023/12/23,20:48,34-51.91N,139-50.58E,88,16.625,
1250,2023/12/23,20:49,34-51.92N,139-51.02E,88,17.081,
1251,2023/12/23,20:50,34-51.94N,139-51.48E,88,17.769,
1252,2023/12/23,20:51,34-51.94N,139-51.95E,88,18.226,
1253,2023/12/23,20:52,34-51.95N,139-52.41E,88,18.37,
1254,2023/12/23,20:53,34-51.96N,139-52.89E,88,18.422,
1255,2023/12/23,20:54,34-51.97N,139-53.33E,88,18.474,
1256,2023/12/23,20:55,34-51.98N,139-53.80E,88,18.53,
1257,2023/12/23,20:56,34-51.98N,139-54.28E,89,18.566,
1258,2023/12/23,20:57,34-51.99N,139-54.74E,85,18.588,
1259,2023/12/23,20:58,34-52.10N,139-55.19E,68,18.62,
1260,2023/12/23,20:59,34-52.28N,139-55.59E,60,18.632,
1261,2023/12/23,21:00,34-52.47N,139-56.00E,60,18.609,
1262,2023/12/23,21:01,34-52.66N,139-56.42E,61,18.601,
1263,2023/12/23,21:02,34-52.85N,139-56.85E,61,18.595,
1264,2023/12/23,21:03,34-53.04N,139-57.28E,62,18.533,
1265,2023/12/23,21:04,34-53.22N,139-57.68E,62,18.392,
1266,2023/12/23,21:05,34-53.41N,139-58.09E,60,17.455,
1267,2023/12/23,21:06,34-53.60N,139-58.51E,61,16.75,
1268,2023/12/23,21:07,34-53.78N,139-58.90E,60,16.6,
1269,2023/12/23,21:08,34-53.96N,139-59.31E,61,16.629,
1270,2023/12/23,21:09,34-54.14N,139-59.71E,61,16.737,
1271,2023/12/23,21:10,34-54.32N,140-00.12E,61,16.824,
1272,2023/12/23,21:11,34-54.50N,140-00.53E,61,16.845,
1273,2023/12/23,21:12,34-54.67N,140-00.92E,61,16.834,
1274,2023/12/23,21:13,34-54.85N,140-01.32E,61,16.909,
1275,2023/12/23,21:14,34-55.03N,140-01.74E,62,17.038,
1276,2023/12/23,21:15,34-55.20N,140-02.13E,61,17.163,
1277,2023/12/23,21:16,34-55.38N,140-02.54E,62,17.261,
1278,2023/12/23,21:17,34-55.56N,140-02.94E,61,17.327,
1279,2023/12/23,21:18,34-55.73N,140-03.33E,62,17.374,
1280,2023/12/23,21:19,34-55.90N,140-03.73E,62,17.396,
1281,2023/12/23,21:20,34-56.08N,140-04.14E,62,17.424,
1282,2023/12/23,21:21,34-56.25N,140-04.54E,62,17.426,
1283,2023/12/23,21:22,34-56.42N,140-04.93E,62,17.389,
1284,2023/12/23,21:23,34-56.59N,140-05.32E,61,17.38,
1285,2023/12/23,21:24,34-56.77N,140-05.73E,61,17.486,
1286,2023/12/23,21:25,34-56.94N,140-06.11E,62,17.504,
1287,2023/12/23,21:26,34-57.11N,140-06.51E,62,17.537,
1288,2023/12/23,21:27,34-57.29N,140-06.92E,62,17.499,
1289,2023/12/23,21:28,34-57.45N,140-07.29E,61,17.399,
1290,2023/12/23,21:29,34-57.62N,140-07.68E,61,17.27,
1291,2023/12/23,21:30,34-57.80N,140-08.07E,60,17.117,
1292,2023/12/23,21:31,34-57.99N,140-08.47E,60,17.006,
1293,2023/12/23,21:32,34-58.17N,140-08.87E,60,16.973,
1294,2023/12/23,21:33,34-58.35N,140-09.25E,60,16.987,
1295,2023/12/23,21:34,34-58.53N,140-09.65E,59,17.032,
1296,2023/12/23,21:35,34-58.73N,140-10.04E,58,17.212,
1297,2023/12/23,21:36,34-58.93N,140-10.45E,59,17.43,
1298,2023/12/23,21:37,34-59.12N,140-10.85E,59,17.637,
1299,2023/12/23,21:38,34-59.33N,140-11.25E,57,17.863,
1300,2023/12/23,21:39,34-59.54N,140-11.66E,57,18.131,
1301,2023/12/23,21:40,34-59.76N,140-12.07E,57,18.273,
1302,2023/12/23,21:41,34-59.97N,140-12.48E,57,18.312,
1303,2023/12/23,21:42,35-00.18N,140-12.88E,57,18.326,
1304,2023/12/23,21:43,35-00.39N,140-13.29E,57,18.328,
1305,2023/12/23,21:44,35-00.61N,140-13.70E,58,18.315,
1306,2023/12/23,21:45,35-00.81N,140-14.11E,57,18.303,
1307,2023/12/23,21:46,35-01.03N,140-14.53E,58,18.237,
1308,2023/12/23,21:47,35-01.24N,140-14.93E,57,18.189,
1309,2023/12/23,21:48,35-01.45N,140-15.34E,57,18.18,
1310,2023/12/23,21:49,35-01.65N,140-15.76E,60,18.173,
1311,2023/12/23,21:50,35-01.84N,140-16.16E,59,17.971,
1312,2023/12/23,21:51,35-02.05N,140-16.58E,59,17.84,
1313,2023/12/23,21:52,35-02.23N,140-16.98E,60,17.831,
1314,2023/12/23,21:53,35-02.43N,140-17.38E,59,17.969,
1315,2023/12/23,21:54,35-02.62N,140-17.78E,59,18.412,
1316,2023/12/23,21:55,35-02.81N,140-18.18E,59,18.65,
1317,2023/12/23,21:56,35-03.00N,140-18.58E,59,18.772,
1318,2023/12/23,21:57,35-03.19N,140-18.97E,59,18.839,
1319,2023/12/23,21:58,35-03.38N,140-19.37E,59,18.936,
1320,2023/12/23,21:59,35-03.58N,140-19.78E,59,19.003,
1321,2023/12/23,22:00,35-03.77N,140-20.18E,59,19.055,
1322,2023/12/23,22:01,35-03.97N,140-20.59E,59,19.098,
1323,2023/12/23,22:02,35-04.16N,140-20.98E,59,19.131,
1324,2023/12/23,22:03,35-04.36N,140-21.39E,59,19.149,
1325,2023/12/23,22:04,35-04.56N,140-21.81E,59,19.15,
1326,2023/12/23,22:05,35-04.75N,140-22.20E,59,19.156,
1327,2023/12/23,22:06,35-04.95N,140-22.62E,59,19.16,
1328,2023/12/23,22:07,35-05.14N,140-23.03E,59,19.157,
1329,2023/12/23,22:08,35-05.33N,140-23.44E,60,19.168,
1330,2023/12/23,22:09,35-05.53N,140-23.86E,60,19.184,
1331,2023/12/23,22:10,35-05.73N,140-24.28E,60,19.2,
1332,2023/12/23,22:11,35-05.92N,140-24.70E,60,19.208,
1333,2023/12/23,22:12,35-06.10N,140-25.10E,61,19.205,
1334,2023/12/23,22:13,35-06.30N,140-25.52E,61,19.201,
1335,2023/12/23,22:14,35-06.50N,140-25.97E,60,19.191,
1336,2023/12/23,22:15,35-06.68N,140-26.37E,60,19.158,
1337,2023/12/23,22:16,35-06.88N,140-26.80E,61,19.1,
1338,2023/12/23,22:17,35-07.07N,140-27.23E,61,19.073,
1339,2023/12/23,22:18,35-07.26N,140-27.65E,61,19.048,
1340,2023/12/23,22:19,35-07.45N,140-28.08E,61,18.995,
1341,2023/12/23,22:20,35-07.65N,140-28.52E,62,18.931,
1342,2023/12/23,22:21,35-07.83N,140-28.94E,62,18.896,
1343,2023/12/23,22:22,35-08.01N,140-29.36E,60,18.874,
1344,2023/12/23,22:23,35-08.22N,140-29.77E,56,18.785,
1345,2023/12/23,22:24,35-08.44N,140-30.17E,56,18.625,
1346,2023/12/23,22:25,35-08.65N,140-30.57E,57,18.278,
1347,2023/12/23,22:26,35-08.87N,140-30.98E,57,17.848,
1348,2023/12/23,22:27,35-09.08N,140-31.36E,52,17.626,
1349,2023/12/23,22:28,35-09.36N,140-31.68E,40,17.421,
1350,2023/12/23,22:29,35-09.67N,140-31.95E,32,17.298,
1351,2023/12/23,22:30,35-09.98N,140-32.19E,33,17.357,
1352,2023/12/23,22:31,35-10.29N,140-32.45E,34,17.357,
1353,2023/12/23,22:32,35-10.59N,140-32.70E,34,17.377,
1354,2023/12/23,22:33,35-10.89N,140-32.96E,35,17.408,
1355,2023/12/23,22:34,35-11.20N,140-33.22E,35,17.458,
1356,2023/12/23,22:35,35-11.49N,140-33.48E,35,17.481,
1357,2023/12/23,22:36,35-11.81N,140-33.75E,35,17.474,
1358,2023/12/23,22:37,35-12.09N,140-33.99E,35,17.477,
1359,2023/12/23,22:38,35-12.39N,140-34.25E,35,17.472,
1360,2023/12/23,22:39,35-12.70N,140-34.51E,35,17.48,
1361,2023/12/23,22:40,35-12.99N,140-34.76E,35,17.468,
1362,2023/12/23,22:41,35-13.29N,140-35.02E,35,17.474,
1363,2023/12/23,22:42,35-13.58N,140-35.27E,35,17.444,
1364,2023/12/23,22:43,35-13.87N,140-35.53E,35,17.416,
1365,2023/12/23,22:44,35-14.17N,140-35.78E,35,17.406,
1366,2023/12/23,22:45,35-14.46N,140-36.03E,34,17.416,
1367,2023/12/23,22:46,35-14.76N,140-36.28E,35,17.433,
1368,2023/12/23,22:47,35-15.05N,140-36.53E,35,17.464,
1369,2023/12/23,22:48,35-15.35N,140-36.78E,34,17.491,
1370,2023/12/23,22:49,35-15.65N,140-37.04E,34,17.499,
1371,2023/12/23,22:50,35-15.94N,140-37.29E,35,17.491,
1372,2023/12/23,22:51,35-16.25N,140-37.55E,34,17.476,
1373,2023/12/23,22:52,35-16.53N,140-37.79E,34,17.441,
1374,2023/12/23,22:53,35-16.83N,140-38.04E,34,17.395,
1375,2023/12/23,22:54,35-17.13N,140-38.30E,34,17.355,
1376,2023/12/23,22:55,35-17.42N,140-38.54E,34,17.349,
1377,2023/12/23,22:56,35-17.72N,140-38.80E,34,17.345,
1378,2023/12/23,22:57,35-18.01N,140-39.05E,34,17.339,
1379,2023/12/23,22:58,35-18.32N,140-39.30E,34,17.327,
1380,2023/12/23,22:59,35-18.62N,140-39.56E,34,17.302,
1381,2023/12/23,23:00,35-18.91N,140-39.81E,35,17.279,
1382,2023/12/23,23:01,35-19.21N,140-40.07E,35,17.253,
1383,2023/12/23,23:02,35-19.50N,140-40.32E,35,17.214,
1384,2023/12/23,23:03,35-19.81N,140-40.59E,35,17.166,
1385,2023/12/23,23:04,35-20.11N,140-40.85E,34,17.098,
1386,2023/12/23,23:05,35-20.40N,140-41.09E,34,17.251,
1387,2023/12/23,23:06,35-20.71N,140-41.35E,34,17.359,
1388,2023/12/23,23:07,35-21.00N,140-41.60E,34,17.413,
1389,2023/12/23,23:08,35-21.31N,140-41.86E,34,17.43,
1390,2023/12/23,23:09,35-21.61N,140-42.13E,37,17.42,
1391,2023/12/23,23:10,35-21.91N,140-42.41E,38,17.366,
1392,2023/12/23,23:11,35-22.19N,140-42.67E,34,17.321,
1393,2023/12/23,23:12,35-22.51N,140-42.91E,31,17.286,
1394,2023/12/23,23:13,35-22.82N,140-43.13E,31,17.105,
1395,2023/12/23,23:14,35-23.14N,140-43.37E,30,16.886,
1396,2023/12/23,23:15,35-23.47N,140-43.60E,30,17.109,
1397,2023/12/23,23:16,35-23.79N,140-43.84E,30,17.206,
1398,2023/12/23,23:17,35-24.10N,140-44.06E,30,17.215,
1399,2023/12/23,23:18,35-24.43N,140-44.29E,29,17.234,
1400,2023/12/23,23:19,35-24.76N,140-44.53E,30,17.293,
1401,2023/12/23,23:20,35-25.08N,140-44.75E,29,17.314,
1402,2023/12/23,23:21,35-25.40N,140-44.98E,30,17.322,
1403,2023/12/23,23:22,35-25.74N,140-45.22E,30,17.335,
1404,2023/12/23,23:23,35-26.04N,140-45.44E,30,17.397,
1405,2023/12/23,23:24,35-26.36N,140-45.68E,33,17.482,
1406,2023/12/23,23:25,35-26.64N,140-45.97E,39,17.516,
1407,2023/12/23,23:26,35-26.91N,140-46.29E,44,17.6,
1408,2023/12/23,23:27,35-27.16N,140-46.59E,44,17.658,
1409,2023/12/23,23:28,35-27.45N,140-46.86E,34,17.696,
1410,2023/12/23,23:29,35-27.78N,140-47.09E,28,17.739,
1411,2023/12/23,23:30,35-28.09N,140-47.30E,28,17.778,
1412,2023/12/23,23:31,35-28.42N,140-47.52E,29,17.808,
1413,2023/12/23,23:32,35-28.74N,140-47.75E,28,17.831,
1414,2023/12/23,23:33,35-29.08N,140-47.93E,23,17.825,
1415,2023/12/23,23:34,35-29.42N,140-48.11E,23,17.762,
1416,2023/12/23,23:35,35-29.75N,140-48.30E,25,17.701,
1417,2023/12/23,23:36,35-30.07N,140-48.54E,32,17.683,
1418,2023/12/23,23:37,35-30.38N,140-48.79E,33,17.652,
1419,2023/12/23,23:38,35-30.70N,140-49.03E,32,17.6,
1420,2023/12/23,23:39,35-31.02N,140-49.28E,32,17.583,
1421,2023/12/23,23:40,35-31.33N,140-49.53E,32,17.491,
1422,2023/12/23,23:41,35-31.65N,140-49.77E,31,17.007,
1423,2023/12/23,23:42,35-31.96N,140-50.00E,31,16.779,
1424,2023/12/23,23:43,35-32.28N,140-50.24E,31,16.893,
1425,2023/12/23,23:44,35-32.62N,140-50.49E,30,17.163,
1426,2023/12/23,23:45,35-32.95N,140-50.75E,33,17.744,
1427,2023/12/23,23:46,35-33.25N,140-51.00E,34,17.942,
1428,2023/12/23,23:47,35-33.54N,140-51.25E,36,18.013,
1429,2023/12/23,23:48,35-33.80N,140-51.52E,39,18.041,
1430,2023/12/23,23:49,35-34.10N,140-51.82E,39,18.051,
1431,2023/12/23,23:50,35-34.36N,140-52.08E,39,18.04,
1432,2023/12/23,23:51,35-34.64N,140-52.36E,39,17.769,
1433,2023/12/23,23:52,35-34.93N,140-52.65E,39,17.763,
1434,2023/12/23,23:53,35-35.20N,140-52.93E,39,17.788,
1435,2023/12/23,23:54,35-35.49N,140-53.21E,39,17.821,
1436,2023/12/23,23:55,35-35.76N,140-53.49E,38,17.866,
1437,2023/12/23,23:56,35-36.04N,140-53.77E,36,17.89,
1438,2023/12/23,23:57,35-36.34N,140-54.01E,32,17.887,
1439,2023/12/23,23:58,35-36.64N,140-54.26E,33,17.847,
1440,2023/12/23,23:59,35-36.94N,140-54.50E,33,17.728,
1,2023/12/24,0:00,35-37.24N,140-54.74E,33,17.608,
2,2023/12/24,0:01,35-37.58N,140-55.01E,33,17.637,
3,2023/12/24,0:02,35-37.88N,140-55.26E,33,17.853,
4,2023/12/24,0:03,35-38.18N,140-55.50E,33,17.985,
5,2023/12/24,0:04,35-38.50N,140-55.72E,28,18.032,
6,2023/12/24,0:05,35-38.81N,140-55.92E,26,18.081,
7,2023/12/24,0:06,35-39.14N,140-56.11E,23,18.129,
8,2023/12/24,0:07,35-39.49N,140-56.26E,17,18.168,
9,2023/12/24,0:08,35-39.82N,140-56.37E,13,18.212,
10,2023/12/24,0:09,35-40.18N,140-56.47E,12,18.252,
11,2023/12/24,0:10,35-40.53N,140-56.57E,13,18.268,
12,2023/12/24,0:11,35-40.89N,140-56.68E,13,18.286,
13,2023/12/24,0:12,35-41.26N,140-56.75E,7,18.303,
14,2023/12/24,0:13,35-41.61N,140-56.81E,7,18.314,
15,2023/12/24,0:14,35-41.98N,140-56.88E,7,18.339,
16,2023/12/24,0:15,35-42.34N,140-56.93E,6,18.361,
17,2023/12/24,0:16,35-42.70N,140-56.99E,6,18.381,
18,2023/12/24,0:17,35-43.08N,140-57.04E,6,18.41,
19,2023/12/24,0:18,35-43.43N,140-57.09E,6,18.419,
20,2023/12/24,0:19,35-43.81N,140-57.15E,6,18.427,
21,2023/12/24,0:20,35-44.16N,140-57.19E,4,18.452,
22,2023/12/24,0:21,35-44.49N,140-57.22E,3,18.475,
23,2023/12/24,0:22,35-44.87N,140-57.25E,3,18.516,
24,2023/12/24,0:23,35-45.22N,140-57.27E,3,18.555,
25,2023/12/24,0:24,35-45.60N,140-57.30E,3,18.587,
26,2023/12/24,0:25,35-45.98N,140-57.33E,3,18.611,
27,2023/12/24,0:26,35-46.33N,140-57.36E,3,18.619,
28,2023/12/24,0:27,35-46.71N,140-57.39E,3,18.629,
29,2023/12/24,0:28,35-47.07N,140-57.42E,3,18.641,
30,2023/12/24,0:29,35-47.45N,140-57.45E,3,18.643,
31,2023/12/24,0:30,35-47.81N,140-57.47E,3,18.645,
32,2023/12/24,0:31,35-48.17N,140-57.56E,13,18.649,
33,2023/12/24,0:32,35-48.53N,140-57.72E,24,18.655,
34,2023/12/24,0:33,35-48.83N,140-57.95E,32,18.637,
35,2023/12/24,0:34,35-49.14N,140-58.19E,32,18.632,
36,2023/12/24,0:35,35-49.45N,140-58.43E,31,18.627,
37,2023/12/24,0:36,35-49.78N,140-58.61E,21,18.636,
38,2023/12/24,0:37,35-50.13N,140-58.74E,14,18.647,
39,2023/12/24,0:38,35-50.48N,140-58.84E,12,18.641,
40,2023/12/24,0:39,35-50.84N,140-58.93E,11,18.64,
41,2023/12/24,0:40,35-51.20N,140-59.03E,12,18.647,
42,2023/12/24,0:41,35-51.56N,140-59.09E,7,18.645,
43,2023/12/24,0:42,35-51.93N,140-59.14E,3,18.633,
44,2023/12/24,0:43,35-52.29N,140-59.14E,0,18.627,
45,2023/12/24,0:44,35-52.66N,140-59.14E,0,18.622,
46,2023/12/24,0:45,35-53.02N,140-59.14E,0,18.612,
47,2023/12/24,0:46,35-53.39N,140-59.14E,0,18.608,
48,2023/12/24,0:47,35-53.79N,140-59.15E,0,18.611,
49,2023/12/24,0:48,35-54.14N,140-59.15E,0,18.609,
50,2023/12/24,0:49,35-54.51N,140-59.15E,0,18.611,
51,2023/12/24,0:50,35-54.87N,140-59.16E,0,18.615,
52,2023/12/24,0:51,35-55.25N,140-59.16E,0,18.63,
53,2023/12/24,0:52,35-55.62N,140-59.16E,359,18.634,
54,2023/12/24,0:53,35-56.00N,140-59.16E,0,18.623,
55,2023/12/24,0:54,35-56.36N,140-59.16E,359,18.599,
56,2023/12/24,0:55,35-56.74N,140-59.16E,359,18.597,
57,2023/12/24,0:56,35-57.10N,140-59.16E,0,18.594,
58,2023/12/24,0:57,35-57.48N,140-59.16E,0,18.592,
59,2023/12/24,0:58,35-57.85N,140-59.17E,0,18.596,
60,2023/12/24,0:59,35-58.23N,140-59.18E,1,18.605,
61,2023/12/24,1:00,35-58.60N,140-59.19E,0,18.621,
62,2023/12/24,1:01,35-58.97N,140-59.19E,0,18.636,
63,2023/12/24,1:02,35-59.37N,140-59.20E,0,18.696,
64,2023/12/24,1:03,35-59.73N,140-59.21E,2,18.764,
65,2023/12/24,1:04,36-00.13N,140-59.23E,2,18.772,
66,2023/12/24,1:05,36-00.50N,140-59.25E,2,18.754,
67,2023/12/24,1:06,36-00.87N,140-59.27E,2,18.765,
68,2023/12/24,1:07,36-01.25N,140-59.29E,2,18.777,
69,2023/12/24,1:08,36-01.64N,140-59.31E,2,18.794,
70,2023/12/24,1:09,36-02.01N,140-59.33E,2,18.827,
71,2023/12/24,1:10,36-02.40N,140-59.35E,2,18.853,
72,2023/12/24,1:11,36-02.76N,140-59.38E,2,18.859,
73,2023/12/24,1:12,36-03.15N,140-59.40E,2,18.864,
74,2023/12/24,1:13,36-03.53N,140-59.42E,2,18.867,